EW8484 Weather Reports


Display with metric or nautical units.
time (UTC)temp
F
wind
direction
speed
MPH
gust
MPH
rain 1hr
in
rain 24hr
in
rain mn
in
humidity
%
barometer
mb
20240616150520 68 140 1.0 2.0 0.00 0.00 0.00 42 1027.1
20240616150022 68 107 1.0 2.0 0.00 0.00 0.00 44 1027.0
20240616145520 67 68 1.0 2.0 0.00 0.00 0.00 37 1026.9
20240616145020 66 95 1.0 4.0 0.00 0.00 0.00 39 1027.0
20240616144520 66 4 2.0 4.0 0.00 0.00 0.00 42 1027.2
20240616144022 66 355 2.0 5.0 0.00 0.00 0.00 39 1027.2
20240616143522 66 4 2.0 6.0 0.00 0.00 0.00 38 1027.1
20240616143120 66 145 1.0 2.0 0.00 0.00 0.00 40 1027.2
20240616142520 66 348 2.0 4.0 0.00 0.00 0.00 37 1027.2
20240616142042 66 327 2.0 6.0 0.00 0.00 0.00 38 1027.2
20240616141520 66 354 2.0 5.0 0.00 0.00 0.00 40 1027.3
20240616141020 67 31 2.0 4.0 0.00 0.00 0.00 37 1027.2
20240616140522 67 98 1.0 3.0 0.00 0.00 0.00 40 1027.2
20240616140022 67 26 1.0 3.0 0.00 0.00 0.00 41 1027.2
20240616135520 67 3 1.0 3.0 0.00 0.00 0.00 37 1027.2
20240616135022 66 0.0 3.0 0.00 0.00 0.00 38 1027.1
20240616134520 66 118 1.0 4.0 0.00 0.00 0.00 43 1027.1
20240616134020 66 186 1.0 2.0 0.00 0.00 0.00 42 1027.3
20240616133520 66 0.0 2.0 0.00 0.00 0.00 41 1027.2
20240616133124 65 0.0 0.0 0.00 0.00 0.00 43 1027.3
20240616132520 65 140 1.0 4.0 0.00 0.00 0.00 43 1027.3
20240616132022 65 273 1.0 3.0 0.00 0.00 0.00 49 1027.4
20240616131522 64 319 2.0 3.0 0.00 0.00 0.00 44 1027.4
20240616131020 65 39 2.0 4.0 0.00 0.00 0.00 44 1027.3
20240616130542 64 59 2.0 4.0 0.00 0.00 0.00 46 1027.3
20240616130020 64 38 2.0 4.0 0.00 0.00 0.00 44 1027.4
20240616125542 64 117 1.0 4.0 0.00 0.00 0.00 46 1027.4
20240616125022 63 11 1.0 4.0 0.00 0.00 0.00 43 1027.3
20240616124522 63 185 1.0 5.0 0.00 0.00 0.00 39 1027.5
20240616124044 62 73 2.0 6.0 0.00 0.00 0.00 39 1027.5
20240616123524 62 42 2.0 5.0 0.00 0.00 0.00 39 1027.6
20240616123123 61 92 2.0 3.0 0.00 0.00 0.00 41 1027.4
20240616122524 61 63 2.0 5.0 0.00 0.00 0.00 41 1027.4
20240616122024 60 151 1.0 5.0 0.00 0.00 0.00 41 1027.3
20240616121542 60 0.0 2.0 0.00 0.00 0.00 44 1027.3
20240616121022 58 134 1.0 2.0 0.00 0.00 0.00 43 1027.3
20240616120524 57 0.0 2.0 0.00 0.00 0.00 45 1027.4
20240616120022 56 0.0 3.0 0.00 0.00 0.00 46 1027.3
20240616115522 55 0.0 2.0 0.00 0.00 0.00 48 1027.3
20240616115022 55 0.0 1.0 0.00 0.00 0.00 50 1027.4
20240616114522 54 306 1.0 3.0 0.00 0.00 0.00 51 1027.3
20240616114022 53 0.0 2.0 0.00 0.00 0.00 52 1027.4
20240616113524 52 0.0 0.0 0.00 0.00 0.00 53 1027.4
20240616113124 51 0.0 1.0 0.00 0.00 0.00 54 1027.3
20240616112522 51 0.0 2.0 0.00 0.00 0.00 54 1027.3
20240616112024 50 197 1.0 2.0 0.00 0.00 0.00 54 1027.2
20240616111522 50 0.0 2.0 0.00 0.00 0.00 55 1027.1
20240616111022 49 251 1.0 2.0 0.00 0.00 0.00 55 1027.0
20240616110524 49 0.0 2.0 0.00 0.00 0.00 55 1026.9
20240616110022 49 0.0 0.0 0.00 0.00 0.00 55 1026.9
20240616105522 48 0.0 1.0 0.00 0.00 0.00 55 1026.8
20240616105022 48 0.0 0.0 0.00 0.00 0.00 55 1026.8
20240616104524 47 0.0 0.0 0.00 0.00 0.00 55 1026.8
20240616104022 47 0.0 0.0 0.00 0.00 0.00 55 1026.7
20240616103542 47 0.0 0.0 0.00 0.00 0.00 55 1026.5
20240616103115 46 0.0 1.0 0.00 0.00 0.00 55 1026.2
20240616102522 46 0.0 1.0 0.00 0.00 0.00 55 1026.2
20240616102024 45 0.0 0.0 0.00 0.00 0.00 55 1026.1
20240616101524 45 0.0 0.0 0.00 0.00 0.00 55 1026.0
20240616101042 45 0.0 1.0 0.00 0.00 0.00 55 1025.9
20240616100522 44 0.0 1.0 0.00 0.00 0.00 55 1025.8
20240616100024 44 0.0 0.0 0.00 0.00 0.00 55 1025.8
20240616095522 44 0.0 0.0 0.00 0.00 0.00 55 1025.8
20240616095022 44 0.0 0.0 0.00 0.00 0.00 54 1025.7
20240616094522 44 0.0 0.0 0.00 0.00 0.00 54 1025.6
20240616094044 44 0.0 0.0 0.00 0.00 0.00 54 1025.5
20240616093544 44 0.0 0.0 0.00 0.00 0.00 54 1025.3
20240616093115 44 0.0 0.0 0.00 0.00 0.00 54 1025.3
20240616092521 44 0.0 0.0 0.00 0.00 0.00 54 1025.3
20240616092024 44 0.0 0.0 0.00 0.00 0.00 54 1025.2
20240616091522 45 0.0 0.0 0.00 0.00 0.00 54 1025.1
20240616091024 45 0.0 0.0 0.00 0.00 0.00 54 1025.0
20240616090521 45 0.0 0.0 0.00 0.00 0.00 54 1024.9
20240616090023 45 0.0 0.0 0.00 0.00 0.00 54 1024.9
20240616085522 45 0.0 0.0 0.00 0.00 0.00 54 1024.9
20240616085023 45 0.0 0.0 0.00 0.00 0.00 54 1024.7
20240616084542 45 0.0 0.0 0.00 0.00 0.00 53 1024.5
20240616084042 45 0.0 0.0 0.00 0.00 0.00 53 1024.5
20240616083522 45 0.0 0.0 0.00 0.00 0.00 53 1024.4
20240616083119 46 0.0 0.0 0.00 0.00 0.00 53 1024.3
20240616082521 46 0.0 0.0 0.00 0.00 0.00 53 1024.3
20240616082044 46 0.0 0.0 0.00 0.00 0.00 53 1024.3
20240616081521 46 0.0 0.0 0.00 0.00 0.00 53 1024.3
20240616081042 46 0.0 0.0 0.00 0.00 0.00 53 1024.2
20240616080523 46 0.0 0.0 0.00 0.00 0.00 53 1024.1
20240616080021 46 0.0 0.0 0.00 0.00 0.00 52 1024.1
20240616075523 46 0.0 0.0 0.00 0.00 0.00 52 1024.1
20240616075021 47 0.0 0.0 0.00 0.00 0.00 52 1024.1
20240616074523 47 0.0 0.0 0.00 0.00 0.00 52 1024.0
20240616074023 47 0.0 0.0 0.00 0.00 0.00 52 1023.9
20240616073524 47 0.0 0.0 0.00 0.00 0.00 52 1023.9
20240616073115 47 0.0 0.0 0.00 0.00 0.00 52 1023.9
20240616072522 47 0.0 0.0 0.00 0.00 0.00 52 1023.9
20240616072021 48 0.0 0.0 0.00 0.00 0.00 52 1023.8
20240616071521 48 0.0 0.0 0.00 0.00 0.00 52 1023.9
20240616071021 48 0.0 0.0 0.00 0.00 0.00 52 1023.8
20240616070521 48 0.0 0.0 0.00 0.00 0.00 52 1023.8
20240616070021 48 0.0 0.0 0.00 0.00 0.00 52 1023.7
20240616065523 48 0.0 0.0 0.00 0.00 0.00 51 1023.7
20240616065045 48 0.0 0.0 0.00 0.00 0.00 51 1023.8
20240616064521 48 0.0 0.0 0.00 0.00 0.00 50 1023.8
20240616064023 49 0.0 0.0 0.00 0.00 0.00 50 1023.7
20240616063521 49 0.0 0.0 0.00 0.00 0.00 50 1023.7
20240616063123 49 0.0 0.0 0.00 0.00 0.00 50 1023.6
20240616062521 49 0.0 0.0 0.00 0.00 0.00 50 1023.6
20240616062041 49 0.0 0.0 0.00 0.00 0.00 50 1023.5
20240616061523 49 0.0 0.0 0.00 0.00 0.00 50 1023.7
20240616061023 50 0.0 0.0 0.00 0.00 0.00 50 1023.7
20240616060623 50 0.0 0.0 0.00 0.00 0.00 50 1023.6
20240616060021 50 0.0 0.0 0.00 0.00 0.00 50 1023.6
20240616055521 50 0.0 0.0 0.00 0.00 0.00 50 1023.5
20240616055021 50 0.0 0.0 0.00 0.00 0.00 50 1023.5
20240616054541 50 0.0 0.0 0.00 0.00 0.00 50 1023.4
20240616054021 51 0.0 0.0 0.00 0.00 0.00 49 1023.4
20240616053521 51 0.0 0.0 0.00 0.00 0.00 49 1023.5
20240616053116 51 0.0 0.0 0.00 0.00 0.00 49 1023.3
20240616052541 51 0.0 0.0 0.00 0.00 0.00 49 1023.3
20240616052021 51 0.0 0.0 0.00 0.00 0.00 49 1023.3
20240616051523 51 0.0 0.0 0.00 0.00 0.00 49 1023.4
20240616051021 51 0.0 0.0 0.00 0.00 0.00 48 1023.5
20240616050523 51 0.0 0.0 0.00 0.00 0.00 48 1023.3
20240616050021 51 0.0 0.0 0.00 0.00 0.00 48 1023.3
20240616045521 51 0.0 1.0 0.00 0.00 0.00 48 1023.3
20240616045021 52 294 1.0 3.0 0.00 0.00 0.00 48 1023.2
20240616044523 52 0.0 2.0 0.00 0.00 0.00 48 1023.1
20240616044023 52 0.0 1.0 0.00 0.00 0.00 48 1023.1
20240616043521 52 0.0 1.0 0.00 0.00 0.00 47 1023.0
20240616043115 52 0.0 0.0 0.00 0.00 0.00 47 1022.9
20240616042521 52 0.0 0.0 0.00 0.00 0.00 48 1022.9
20240616042021 52 0.0 0.0 0.00 0.00 0.00 48 1022.9
20240616041521 52 0.0 0.0 0.00 0.00 0.00 48 1022.9
20240616041021 52 0.0 0.0 0.00 0.00 0.00 48 1022.8
20240616040541 53 0.0 0.0 0.00 0.00 0.00 49 1022.7
20240616040021 53 0.0 0.0 0.00 0.00 0.00 50 1022.6
20240616035521 53 0.0 0.0 0.00 0.01 0.00 50 1022.5
20240616035021 53 0.0 0.0 0.00 0.01 0.00 51 1022.4
20240616034521 53 0.0 0.0 0.00 0.01 0.00 52 1022.4
20240616034021 53 0.0 0.0 0.00 0.01 0.00 52 1022.4
20240616033523 54 0.0 0.0 0.00 0.02 0.00 52 1022.4
20240616033118 54 0.0 0.0 0.00 0.04 0.00 52 1022.4
20240616032521 54 0.0 0.0 0.00 0.05 0.00 53 1022.2
20240616032023 54 0.0 0.0 0.00 0.06 0.00 53 1022.0
20240616031541 54 0.0 0.0 0.00 0.09 0.00 53 1021.9
20240616031023 54 0.0 0.0 0.00 0.12 0.00 53 1022.0
20240616030521 54 0.0 0.0 0.00 0.14 0.00 53 1021.8
20240616030021 54 0.0 0.0 0.00 0.18 0.00 53 1021.7
20240616025523 55 0.0 0.0 0.00 0.26 0.00 53 1021.5
20240616025021 55 0.0 0.0 0.00 0.33 0.00 54 1021.4
20240616024521 55 0.0 0.0 0.00 0.42 0.00 54 1021.3
20240616024021 55 0.0 0.0 0.00 0.44 0.00 54 1021.2
20240616023521 55 0.0 0.0 0.00 0.45 0.00 54 1021.2
20240616023113 55 0.0 0.0 0.00 0.45 0.00 54 1021.1
20240616022523 55 0.0 0.0 0.00 0.45 0.00 55 1021.2
20240616022021 55 0.0 0.0 0.00 0.45 0.00 56 1021.1
20240616021521 56 0.0 0.0 0.00 0.45 0.00 56 1021.1
20240616021021 56 0.0 0.0 0.00 0.45 0.00 56 1021.0
20240616020523 56 0.0 0.0 0.00 0.45 0.00 57 1021.0
20240616020041 56 0.0 0.0 0.00 0.45 0.00 59 1020.8
20240616015523 56 0.0 0.0 0.00 0.45 0.00 59 1020.8
20240616015021 57 0.0 0.0 0.00 0.45 0.00 60 1020.8
20240616014523 57 0.0 0.0 0.00 0.45 0.00 61 1020.8
20240616014021 57 0.0 0.0 0.00 0.45 0.00 62 1020.7
20240616013545 57 0.0 0.0 0.00 0.45 0.00 62 1020.5
20240616013125 58 0.0 0.0 0.00 0.45 0.00 63 1020.3
20240616012541 58 0.0 0.0 0.00 0.45 0.00 63 1020.2
20240616012023 58 0.0 0.0 0.00 0.45 0.00 63 1020.2
20240616011521 59 0.0 0.0 0.00 0.45 0.00 63 1020.1
20240616011023 59 0.0 0.0 0.00 0.45 0.00 63 1019.9
20240616010521 59 0.0 0.0 0.00 0.45 0.00 62 1019.8
20240616010021 60 0.0 0.0 0.00 0.45 0.00 61 1019.7
20240616005521 60 0.0 0.0 0.00 0.45 0.00 60 1019.6
20240616005021 61 0.0 0.0 0.00 0.45 0.00 59 1019.5
20240616004521 61 0.0 0.0 0.00 0.45 0.00 59 1019.6
20240616004021 61 0.0 0.0 0.00 0.45 0.00 58 1019.5
20240616003541 62 0.0 0.0 0.00 0.45 0.00 58 1019.4
20240616003123 62 0.0 0.0 0.00 0.45 0.00 57 1019.5
20240616002541 63 0.0 0.0 0.00 0.45 0.00 55 1019.4
20240616002021 63 0.0 0.0 0.00 0.45 0.00 54 1019.6
20240616001543 64 0.0 0.0 0.00 0.45 0.00 55 1019.5
20240616001021 64 0.0 0.0 0.00 0.45 0.00 54 1019.5
20240616000523 65 0.0 0.0 0.00 0.45 0.00 53 1019.2
20240616000021 65 0.0 0.0 0.00 0.45 0.00 55 1019.2
20240615235521 66 0.0 0.0 0.00 0.45 0.00 54 1019.1
20240615235023 66 0.0 0.0 0.00 0.45 0.00 54 1019.1
20240615234523 66 312 1.0 3.0 0.00 0.45 0.00 50 1019.0
20240615234041 67 333 1.0 3.0 0.00 0.45 0.00 50 1018.9
20240615233523 68 0.0 1.0 0.00 0.45 0.00 47 1018.8
20240615233117 68 339 1.0 3.0 0.00 0.45 0.00 43 1018.7
20240615232543 68 0.0 2.0 0.00 0.45 0.00 45 1018.7
20240615232021 69 0.0 2.0 0.00 0.45 0.00 43 1018.6
20240615231520 69 342 1.0 3.0 0.00 0.45 0.00 43 1018.5
20240615231021 70 0.0 1.0 0.00 0.45 0.00 41 1018.4
20240615230521 70 0.0 0.0 0.00 0.45 0.00 40 1018.3
20240615230045 71 0.0 2.0 0.00 0.45 0.00 38 1018.4
20240615225520 71 341 1.0 5.0 0.00 0.45 0.00 35 1018.4
20240615225021 71 348 2.0 8.0 0.00 0.45 0.00 35 1018.2
20240615224521 71 345 1.0 4.0 0.00 0.45 0.00 37 1018.2
20240615224023 72 346 2.0 5.0 0.00 0.45 0.00 36 1018.1
20240615223523 72 352 2.0 5.0 0.00 0.45 0.00 34 1018.0
20240615223136 72 350 1.0 3.0 0.00 0.45 0.00 34 1017.9
20240615222520 73 332 2.0 5.0 0.00 0.45 0.00 34 1017.8
20240615222023 73 341 3.0 10.0 0.00 0.45 0.00 32 1017.7
20240615221523 73 338 3.0 7.0 0.00 0.45 0.00 31 1017.8
20240615221023 73 349 2.0 8.0 0.00 0.45 0.00 33 1017.8
20240615220521 74 351 4.0 9.0 0.00 0.45 0.00 30 1017.8
20240615220043 74 3 2.0 8.0 0.00 0.45 0.00 32 1017.9
20240615215521 74 11 2.0 4.0 0.00 0.45 0.00 31 1017.7
20240615215021 74 350 3.0 8.0 0.00 0.45 0.00 32 1017.8
20240615214521 74 356 3.0 10.0 0.00 0.45 0.00 30 1017.9
20240615214021 74 356 4.0 9.0 0.00 0.45 0.00 31 1017.9
20240615213521 74 338 3.0 10.0 0.00 0.45 0.00 32 1017.9
20240615213125 74 354 3.0 8.0 0.00 0.45 0.00 31 1018.0
20240615212522 75 346 3.0 13.0 0.00 0.45 0.00 31 1018.0
20240615212021 75 343 3.0 10.0 0.00 0.45 0.00 30 1018.0
20240615211603 75 352 3.0 8.0 0.00 0.45 0.00 33 1018.0
20240615211021 75 334 4.0 10.0 0.00 0.45 0.00 30 1018.1
20240615210522 75 296 3.0 8.0 0.00 0.46 0.00 30 1017.9
20240615210021 75 335 2.0 7.0 0.00 0.46 0.00 31 1017.7
20240615205523 75 349 3.0 8.0 0.00 0.46 0.00 32 1017.7
20240615205020 75 358 2.0 11.0 0.00 0.46 0.00 32 1017.7
20240615204523 74 336 2.0 6.0 0.00 0.46 0.00 29 1017.7
20240615204022 74 345 4.0 12.0 0.00 0.47 0.00 31 1017.6
20240615203522 74 318 3.0 9.0 0.00 0.47 0.00 33 1017.8
20240615203142 74 8 2.0 7.0 0.00 0.47 0.00 35 1017.9
20240615202520 74 344 5.0 12.0 0.00 0.47 0.00 29 1017.9
20240615202020 74 350 2.0 6.0 0.00 0.48 0.00 32 1017.8
20240615201523 74 342 3.0 9.0 0.00 0.48 0.00 31 1017.7
20240615201020 74 343 3.0 9.0 0.00 0.51 0.00 31 1017.7
20240615200522 74 355 3.0 6.0 0.00 0.52 0.00 32 1017.7
20240615200042 74 344 4.0 11.0 0.00 0.55 0.00 31 1017.6
20240615195520 74 349 4.0 10.0 0.00 0.60 0.00 28 1017.6
20240615195020 74 341 4.0 13.0 0.00 0.63 0.00 32 1017.6
20240615194520 74 326 2.0 6.0 0.00 0.63 0.00 31 1017.4
20240615194020 74 353 2.0 6.0 0.00 0.63 0.00 30 1017.5
20240615193520 74 344 4.0 11.0 0.00 0.63 0.00 30 1017.5
20240615193125 74 345 4.0 9.0 0.00 0.63 0.00 31 1017.5
20240615192520 74 331 5.0 11.0 0.00 0.63 0.00 28 1017.5
20240615192042 74 340 4.0 10.0 0.00 0.63 0.00 29 1017.5
20240615191522 74 6 3.0 9.0 0.00 0.63 0.00 36 1017.3
20240615191020 74 25 3.0 11.0 0.00 0.63 0.00 31 1017.4
20240615190522 74 353 5.0 10.0 0.00 0.63 0.00 37 1017.5
20240615190020 74 350 5.0 11.0 0.00 0.63 0.00 30 1017.4
20240615185520 74 346 4.0 8.0 0.00 0.63 0.00 33 1017.5
20240615185020 74 342 3.0 9.0 0.00 0.63 0.00 34 1017.5
20240615184520 74 358 4.0 10.0 0.00 0.63 0.00 34 1017.5
20240615184022 74 352 4.0 13.0 0.00 0.63 0.00 36 1017.5
20240615183522 74 346 3.0 8.0 0.00 0.63 0.00 35 1017.6
20240615183121 74 4 3.0 6.0 0.00 0.63 0.00 36 1017.5
20240615182522 74 23 4.0 8.0 0.00 0.63 0.00 33 1017.6
20240615182022 74 338 2.0 6.0 0.00 0.63 0.00 41 1017.6
20240615181520 73 347 3.0 11.0 0.00 0.63 0.00 38 1017.7
20240615181020 73 356 3.0 12.0 0.00 0.63 0.00 34 1017.6
20240615180520 73 2 3.0 9.0 0.00 0.63 0.00 38 1017.5
20240615180022 73 343 5.0 11.0 0.00 0.63 0.00 32 1017.6
20240615175542 73 339 3.0 9.0 0.00 0.63 0.00 32 1017.5
20240615175020 73 357 3.0 10.0 0.00 0.63 0.00 32 1017.5
20240615174522 73 348 3.0 10.0 0.00 0.63 0.00 36 1017.5
20240615174020 73 339 3.0 9.0 0.00 0.63 0.00 39 1017.4
20240615173520 73 9 4.0 11.0 0.00 0.63 0.00 36 1017.4
20240615173119 72 6 2.0 5.0 0.00 0.63 0.00 39 1017.4
20240615172520 72 341 5.0 13.0 0.00 0.63 0.00 32 1017.6
20240615172022 72 346 5.0 16.0 0.00 0.63 0.00 33 1017.7
20240615171542 72 349 5.0 13.0 0.00 0.63 0.00 35 1017.6
20240615171020 72 345 4.0 9.0 0.00 0.63 0.00 36 1017.6
20240615170520 72 344 4.0 11.0 0.00 0.63 0.00 37 1017.7
20240615170020 72 355 3.0 6.0 0.00 0.63 0.00 38 1017.6
20240615165522 72 345 4.0 9.0 0.00 0.63 0.00 38 1017.6
20240615165022 72 350 5.0 11.0 0.00 0.63 0.00 36 1017.7
20240615164520 72 1 5.0 10.0 0.00 0.63 0.00 35 1017.7
20240615164020 71 354 5.0 11.0 0.00 0.63 0.00 36 1017.6
20240615163520 71 348 5.0 14.0 0.00 0.63 0.00 36 1017.5
20240615163119 71 1 3.0 7.0 0.00 0.63 0.00 39 1017.6
20240615162522 72 339 4.0 11.0 0.00 0.63 0.00 34 1017.7
20240615162022 72 332 3.0 9.0 0.00 0.65 0.00 36 1017.7
20240615161522 71 357 2.0 5.0 0.00 0.68 0.00 36 1017.7
20240615161022 71 2 3.0 10.0 0.00 0.79 0.00 40 1017.8
20240615160520 71 336 4.0 12.0 0.00 0.89 0.00 36 1017.8
20240615160022 71 334 5.0 10.0 0.00 0.89 0.00 34 1017.7
20240615155524 71 344 4.0 14.0 0.00 0.90 0.00 38 1017.6
20240615155042 71 353 4.0 12.0 0.00 0.93 0.00 36 1017.5
20240615154522 71 11 3.0 8.0 0.00 0.94 0.00 39 1017.3
20240615154022 70 344 3.0 8.0 0.00 0.94 0.00 38 1017.2
20240615153544 70 326 2.0 8.0 0.00 0.94 0.00 41 1017.2
20240615153124 70 356 3.0 11.0 0.00 0.94 0.00 45 1017.3
20240615152522 70 22 3.0 9.0 0.00 0.94 0.00 40 1017.4
20240615152024 69 344 5.0 13.0 0.00 0.94 0.00 39 1017.2
20240615151522 70 348 3.0 10.0 0.00 0.94 0.00 44 1017.2
20240615151044 70 344 3.0 8.0 0.00 0.94 0.00 43 1017.3